Temperature
14 13 13 13 12 12 12 12 12 13 13 13 13 12 12 11 10 10 10 10 9 9 9 9 9 9 9 9 9 9 10 10 10 10 10 10 10 10 10 10 11 11 11
13 13 13 12 12 12 12 12 13 13 13 13 12 12 11 10 9 9 9 9 9 9 9 9 9 9 9 9 9 9 10 10 10 10 10 10 10 10 10 10 10 10 11
13 13 12 12 12 12 12 12 12 13 13 12 12 11 11 10 9 9 8 8 8 8 8 8 8 8 9 9 9 9 9 9 10 10 10 10 10 10 10 10 10 10 10
13 12 12 12 11 11 12 12 12 12 12 12 12 11 10 10 9 8 8 8 8 8 8 8 8 8 8 8 8 8 9 9 9 9 9 9 9 10 9 9 9 9 9
13 12 12 11 11 11 12 12 12 12 12 12 11 11 10 9 8 8 8 7 7 7 7 7 7 7 8 8 8 8 8 8 8 7 7 7 8 8 8 8 7 7 6
13 12 12 11 11 11 11 11 11 11 11 11 11 11 10 9 8 8 7 7 7 7 7 7 7 7 7 7 7 7 7 6 6 6 6 5 5 6 6 6 6 5 5
13 12 12 11 11 11 11 11 11 11 10 10 11 10 9 8 8 7 7 7 7 6 6 6 6 6 6 6 6 6 6 6 5 5 5 5 5 5 4 4 4 4 4
12 12 12 12 11 11 11 11 10 10 10 10 10 9 8 8 7 7 7 7 6 6 5 5 5 6 5 5 6 5 5 5 5 4 3 3 3 3 3 2 2 3 3
12 12 12 11 11 11 11 10 10 10 9 9 9 8 8 7 7 7 6 6 5 5 5 4 4 4 4 4 4 4 3 3 3 1 1 1 1 1 1 1 1 1 2
12 11 11 11 11 11 10 10 10 9 9 8 8 7 7 6 6 6 5 5 4 4 4 4 3 3 3 3 2 2 2 1 0 -1 -1 -1 -1 -1 -0 -0 0 0 1
11 11 11 11 11 11 10 10 9 9 8 7 7 6 6 5 4 3 3 4 4 3 3 3 3 2 2 1 1 0 -0 -1 -2 -2 -2 -2 -2 -1 -1 -1 -1 -1 -1
11 11 10 10 10 10 10 9 9 8 7 7 6 6 5 4 3 2 2 2 2 3 2 2 2 1 1 0 -1 -1 -2 -3 -3 -3 -3 -3 -3 -2 -2 -2 -2 -2 -2
11 10 10 10 10 10 9 9 8 8 7 6 6 5 4 3 3 2 1 1 1 2 2 1 0 0 0 -0 -1 -1 -2 -3 -4 -4 -4 -4 -4 -4 -4 -4 -4 -3 -3
11 10 10 9 9 9 9 8 8 7 6 5 5 4 3 3 2 2 1 -0 -1 -1 -1 -0 -0 -1 -1 -1 -2 -2 -3 -4 -5 -5 -5 -4 -5 -5 -5 -5 -5 -4 -4
11 10 9 9 9 9 8 7 7 6 5 5 4 3 2 2 1 1 0 -1 -2 -3 -3 -2 -3 -3 -3 -3 -3 -4 -4 -5 -5 -5 -5 -5 -5 -5 -5 -5 -5 -5 -5
11 10 9 9 8 8 7 7 6 5 5 4 3 2 2 2 1 0 -1 -1 -3 -4 -4 -4 -4 -4 -5 -5 -5 -5 -6 -6 -6 -6 -6 -6 -6 -6 -6 -6 -6 -6 -5
10 9 9 8 8 7 7 6 5 5 4 3 2 1 1 0 -0 -0 -1 -2 -3 -4 -5 -5 -5 -6 -6 -6 -6 -6 -6 -6 -6 -7 -6 -6 -6 -6 -6 -6 -6 -6 -6
9 8 8 8 7 7 6 5 4 3 2 2 1 0 -0 -1 -1 -2 -3 -4 -5 -5 -6 -6 -6 -7 -7 -7 -7 -7 -7 -7 -7 -7 -7 -7 -7 -7 -7 -7 -6 -6 -6
8 8 7 7 6 6 5 4 3 2 2 1 0 -0 -1 -2 -2 -3 -4 -5 -6 -6 -7 -7 -7 -7 -7 -7 -7 -7 -7 -7 -7 -7 -7 -7 -7 -7 -7 -7 -7 -7 -7
8 7 7 6 5 4 4 3 2 2 1 1 -0 -1 -2 -3 -4 -5 -5 -6 -7 -7 -8 -8 -8 -8 -8 -7 -7 -8 -8 -8 -8 -8 -8 -7 -7 -7 -7 -7 -7 -7 -7
7 7 6 5 4 4 3 2 1 1 0 0 -0 -1 -3 -4 -5 -6 -6 -7 -7 -8 -8 -8 -8 -8 -8 -8 -8 -8 -8 -9 -8 -8 -8 -7 -7 -7 -6 -6 -7 -7 -7
6 5 5 4 3 3 2 1 1 0 -0 -0 -1 -2 -3 -4 -5 -6 -7 -7 -8 -8 -8 -8 -8 -8 -8 -8 -9 -9 -9 -9 -9 -8 -8 -8 -7 -7 -6 -7 -7 -7 -7
5 4 4 3 2 2 1 0 -0 -0 -1 -1 -2 -4 -5 -6 -7 -7 -8 -8 -8 -8 -8 -8 -9 -9 -9 -9 -9 -9 -9 -9 -9 -8 -9 -8 -7 -8 -7 -7 -7 -7 -7
4 3 2 2 1 1 0 -0 -1 -1 -2 -2 -4 -6 -6 -7 -7 -8 -8 -8 -8 -8 -9 -9 -9 -9 -9 -9 -9 -9 -9 -9 -8 -8 -8 -9 -8 -8 -8 -7 -7 -6 -6
3 2 1 1 0 -0 -1 -1 -2 -2 -3 -4 -6 -7 -7 -8 -8 -8 -8 -9 -9 -8 -9 -9 -9 -9 -9 -9 -9 -9 -9 -9 -9 -9 -8 -9 -9 -9 -8 -7 -6 -6 -7
1 1 0 -0 -1 -1 -2 -3 -3 -4 -5 -6 -6 -7 -7 -8 -8 -8 -9 -9 -9 -9 -9 -9 -8 -8 -8 -8 -8 -9 -10 -10 -10 -10 -8 -9 -10 -10 -10 -8 -7 -6 -6
Wind_Speed
4 4 5 6 8 8 5 4 5 5 5 6 7 6 5 6 7 13 13 15 14 13 13 13 13 13 12 12 12 12 12 12 13 13 13 13 14 13 11 10 10 9 9
5 4 5 5 6 8 6 5 5 4 4 3 3 3 5 5 6 12 13 13 12 12 11 12 12 13 13 13 13 12 12 12 13 13 14 14 14 14 13 12 11 10 10
10 7 5 5 5 8 8 7 5 4 3 3 4 3 3 4 3 7 12 12 10 9 9 10 11 12 13 13 13 13 13 13 13 14 14 15 15 16 16 15 14 13 12
15 9 6 5 7 9 6 4 4 4 4 5 4 3 2 1 3 6 7 9 8 6 5 7 10 11 12 13 13 13 13 13 14 15 15 16 17 17 17 17 16 16 15
16 11 5 5 9 6 4 5 5 4 4 4 4 2 2 1 2 2 4 7 6 3 2 5 9 10 11 13 13 14 13 14 14 15 16 17 18 18 19 19 19 18 18
16 12 7 7 8 6 5 5 4 4 3 3 4 2 0 1 2 2 2 3 5 4 1 3 6 8 11 14 14 13 13 14 15 16 17 18 19 19 20 20 20 20 20
15 11 7 7 6 5 5 5 4 5 4 4 4 3 2 2 2 2 2 2 0 2 2 3 4 6 9 12 13 13 14 14 16 17 18 19 20 21 22 22 22 22 22
14 12 9 8 8 7 7 6 4 3 2 4 3 2 4 3 3 1 1 2 0 2 2 3 5 6 8 10 10 12 13 15 16 18 20 22 22 23 23 23 24 24 24
12 12 10 8 9 7 6 6 5 4 2 2 4 4 3 2 4 4 3 0 0 1 2 4 5 5 7 10 9 8 13 15 16 19 22 24 24 24 24 24 25 26 26
10 13 12 10 9 8 8 6 6 4 3 2 2 2 2 3 1 4 5 3 4 4 5 4 5 7 9 10 8 9 14 15 18 22 25 26 26 26 25 26 26 26 27
9 12 12 9 9 8 8 7 6 5 3 3 2 2 2 1 2 3 5 5 5 5 6 5 6 9 10 10 7 9 15 17 20 25 27 28 27 27 27 27 27 27 28
9 10 12 9 7 8 8 7 6 5 3 3 1 1 1 0 1 2 4 5 6 5 6 7 7 7 10 10 8 12 15 18 23 26 28 28 28 28 28 29 29 29 29
10 11 11 9 8 7 7 6 5 5 3 2 0 1 1 1 1 2 4 5 6 5 5 6 5 6 7 4 5 12 17 21 25 27 28 29 29 30 30 30 30 30 30
11 11 11 10 8 8 7 5 5 4 3 2 2 1 1 2 2 2 3 4 7 4 4 6 6 6 6 8 13 19 16 23 27 29 30 30 31 31 31 31 31 31 30
13 13 12 11 9 7 7 6 4 4 3 2 1 0 1 2 2 2 3 3 4 6 6 5 4 6 13 14 17 17 17 24 28 29 30 32 32 32 32 32 32 32 31
15 14 13 11 9 8 7 5 3 4 2 1 2 2 2 2 2 3 3 4 4 7 9 4 6 8 9 15 21 21 20 27 28 30 31 32 32 32 32 33 33 33 32
15 14 12 10 9 8 6 5 3 3 2 2 2 2 3 1 2 3 4 4 5 6 12 10 6 6 8 10 13 17 19 18 21 28 31 31 31 32 32 33 33 33 33
14 13 11 10 8 7 6 4 2 1 2 3 3 3 4 3 3 4 4 5 5 6 9 13 8 6 9 10 11 11 14 19 19 27 29 29 31 32 33 33 34 33 33
14 11 10 9 8 7 5 4 3 3 3 3 3 3 4 3 4 4 5 5 5 8 7 10 11 8 8 10 12 13 13 10 17 22 26 28 30 32 34 34 33 33 32
13 11 11 10 8 6 4 4 4 4 5 5 4 4 4 5 6 5 5 6 7 7 7 9 11 11 10 10 9 10 11 8 10 15 21 26 29 31 32 33 33 33 33
13 12 11 9 6 5 5 5 5 5 6 6 6 5 5 6 9 8 8 6 7 6 7 9 12 12 11 9 9 9 13 11 11 12 12 13 13 13 16 26 29 30 31
12 11 9 7 6 5 6 4 4 4 5 7 7 5 5 7 11 14 15 16 15 11 10 10 12 14 14 11 9 10 12 15 16 6 8 14 12 14 13 10 25 31 31
11 9 7 6 6 7 5 3 6 5 6 7 7 6 6 7 10 5 11 16 15 20 21 15 15 14 14 11 10 12 14 16 18 12 11 18 13 14 13 17 29 31 32
9 8 7 5 5 6 4 4 7 6 7 7 7 6 6 6 7 10 8 7 8 11 17 14 11 12 12 11 13 16 17 15 14 11 9 15 16 15 16 11 25 30 31
8 6 5 4 3 4 4 4 7 4 6 7 7 7 8 7 14 17 10 9 11 10 18 22 24 23 27 28 22 13 10 12 17 15 8 9 13 15 15 14 17 24 24
7 5 4 2 2 1 1 4 7 3 5 5 6 7 12 14 17 18 11 10 13 12 12 13 15 19 16 17 22 12 9 12 15 12 5 4 10 12 10 7 7 9 15
Wind_Direction
167 127 106 110 109 116 106 72 57 46 37 35 21 20 5 7 55 103 88 78 71 66 59 51 42 32 23 16 9 5 3 2 2 1 0 358 357 353 351 350 352 354 355
142 108 96 92 92 91 85 79 73 49 46 29 358 25 10 13 59 110 114 96 85 73 58 46 34 24 14 7 360 354 350 348 347 347 345 342 340 337 331 326 324 323 324
126 115 113 112 115 109 86 64 63 50 47 12 6 41 39 19 34 110 126 125 107 87 62 41 24 14 7 1 355 350 345 342 340 338 336 333 330 327 322 315 310 307 305
130 123 123 125 120 105 92 74 44 52 46 24 357 359 357 70 40 80 97 99 96 77 52 29 13 3 358 354 350 345 343 341 337 333 330 327 325 321 316 310 304 300 296
133 131 128 129 118 102 92 87 58 53 42 8 324 309 349 156 118 98 108 113 113 96 22 12 7 355 347 343 341 340 341 339 336 332 329 326 322 319 314 309 303 297 292
138 133 135 127 115 110 112 112 110 74 43 350 322 321 215 115 145 175 135 134 166 177 134 29 14 0 344 335 334 334 335 333 334 333 329 325 322 318 313 307 302 296 291
143 141 135 124 123 125 119 113 114 88 33 356 9 347 288 217 205 192 142 92 359 168 124 36 25 357 338 331 328 325 328 331 332 331 329 326 322 318 313 308 303 297 292
146 144 134 130 123 116 100 90 87 105 62 33 47 23 359 343 326 270 151 169 289 34 32 8 351 325 326 321 312 318 326 325 325 326 326 323 319 314 309 306 303 299 294
142 138 131 126 126 121 118 112 96 94 118 67 61 82 78 325 322 320 293 197 326 319 308 298 288 289 315 312 305 317 317 316 316 320 321 319 314 310 306 303 300 298 295
137 133 130 128 123 120 121 117 103 96 92 100 81 63 102 126 63 318 319 336 0 339 312 299 296 290 292 291 286 306 312 309 311 316 317 314 310 307 305 304 302 299 297
131 128 128 126 125 123 119 114 107 91 83 87 77 53 28 41 193 228 283 307 324 315 315 305 291 280 273 275 268 295 303 304 308 312 312 308 306 305 305 304 303 301 299
132 127 127 124 118 118 117 118 112 101 89 86 67 77 124 145 308 287 284 300 296 292 299 289 281 267 258 260 268 294 300 302 305 307 305 304 303 304 304 304 301 299 296
144 139 134 129 123 119 120 122 122 125 124 107 42 18 38 327 286 281 283 291 294 299 289 284 292 304 295 304 317 310 305 305 305 304 302 302 303 304 303 301 298 296 294
146 141 135 129 126 125 128 129 129 136 128 155 235 198 241 267 276 276 275 296 303 293 287 296 311 310 338 334 317 314 313 307 305 302 302 303 304 303 301 299 298 296 293
142 138 132 130 129 128 132 139 143 151 152 190 214 28 307 282 284 278 278 273 277 292 294 278 294 334 332 321 317 314 307 306 303 303 304 304 302 301 300 299 297 296 293
140 136 131 128 126 126 128 128 125 121 120 244 183 203 269 293 326 319 305 285 269 276 286 281 303 302 309 314 310 310 304 303 303 302 300 300 300 299 299 298 297 296 293
136 133 131 127 128 132 133 136 158 153 178 270 273 239 246 270 281 280 281 280 276 274 284 289 281 292 302 299 299 295 296 294 293 298 299 299 299 300 300 299 297 295 293
127 127 125 122 121 116 111 112 119 130 231 260 272 273 267 264 269 274 273 271 274 273 282 294 297 297 294 294 293 291 300 298 295 298 299 301 302 302 300 298 296 294 293
122 118 113 110 106 101 92 69 42 1 326 298 282 272 271 276 279 277 282 288 289 294 294 301 303 298 294 294 294 293 293 292 296 302 304 302 300 298 297 298 298 298 297
118 110 104 101 102 103 89 56 22 348 328 317 305 283 265 254 255 260 278 277 282 286 290 292 295 296 292 288 289 298 300 289 296 303 299 295 295 297 297 298 298 297 295
109 105 104 104 105 104 79 53 13 347 338 325 313 299 288 291 291 286 282 268 280 282 285 290 294 297 298 298 298 297 301 303 296 290 287 287 291 290 291 293 294 293 292
104 104 107 113 113 101 86 43 353 336 326 314 304 305 314 306 296 300 304 305 303 302 302 296 297 297 298 295 294 297 301 302 299 276 288 296 292 290 289 284 292 295 296
109 107 107 106 108 118 104 30 343 338 309 294 289 290 294 295 307 307 301 302 302 303 302 298 295 294 294 292 291 292 292 291 292 293 298 295 292 289 289 292 297 298 298
110 109 109 105 110 140 118 29 349 346 311 299 296 291 290 294 301 304 294 296 287 292 293 294 288 288 293 290 284 290 292 292 289 286 276 287 294 293 295 289 294 294 294
104 104 102 99 90 120 112 21 353 327 309 313 321 328 323 304 306 311 314 303 297 295 302 301 300 300 301 301 302 301 296 297 297 296 284 277 291 298 296 291 287 289 292
103 109 114 118 115 116 71 357 347 331 320 320 319 317 318 314 312 316 313 302 303 300 297 299 301 300 297 296 301 298 294 296 297 297 286 275 295 308 302 268 264 285 291
Height
1518 1520 1520 1521 1522 1523 1524 1525 1525 1525 1524 1522 1521 1520 1519 1519 1518 1516 1517 1517 1516 1516 1516 1516 1516 1516 1515 1515 1514 1514 1513 1513 1512 1511 1511 1511 1510 1510 1510 1510 1510 1510 1510
1516 1517 1519 1520 1521 1522 1523 1523 1523 1522 1521 1520 1519 1518 1517 1517 1516 1515 1515 1515 1515 1515 1515 1514 1514 1514 1513 1513 1512 1511 1510 1510 1509 1508 1507 1507 1506 1506 1505 1505 1505 1505 1505
1514 1515 1517 1519 1520 1521 1521 1521 1521 1520 1519 1518 1517 1516 1515 1515 1515 1514 1513 1513 1513 1513 1513 1513 1512 1512 1511 1510 1509 1508 1507 1506 1505 1503 1502 1501 1501 1500 1500 1499 1499 1499 1499
1512 1514 1515 1517 1518 1519 1520 1519 1518 1518 1517 1516 1515 1514 1514 1513 1513 1513 1512 1512 1511 1512 1511 1511 1510 1509 1508 1507 1506 1505 1503 1502 1500 1499 1497 1496 1495 1494 1493 1493 1493 1492 1492
1509 1511 1513 1515 1516 1517 1517 1517 1517 1516 1516 1515 1514 1513 1512 1511 1511 1511 1511 1510 1510 1510 1509 1508 1507 1506 1505 1504 1502 1501 1499 1497 1495 1493 1492 1491 1489 1488 1487 1487 1486 1486 1486
1506 1508 1510 1512 1514 1515 1515 1515 1515 1515 1515 1513 1512 1511 1511 1510 1510 1510 1509 1509 1508 1507 1507 1506 1505 1503 1502 1500 1498 1496 1494 1492 1490 1489 1487 1485 1483 1482 1481 1480 1480 1479 1479
1502 1504 1507 1509 1511 1513 1513 1514 1514 1514 1513 1512 1511 1510 1510 1509 1509 1508 1508 1507 1507 1506 1504 1503 1502 1500 1498 1496 1493 1491 1489 1488 1486 1484 1482 1480 1478 1476 1475 1474 1473 1473 1473
1498 1501 1503 1506 1508 1510 1511 1512 1512 1512 1511 1511 1510 1509 1509 1509 1507 1507 1506 1505 1505 1503 1502 1500 1498 1496 1494 1491 1489 1486 1484 1482 1480 1478 1476 1474 1472 1470 1469 1467 1466 1466 1465
1495 1497 1500 1503 1505 1507 1509 1510 1510 1510 1509 1509 1508 1508 1507 1507 1506 1505 1504 1503 1502 1500 1499 1497 1494 1491 1489 1486 1483 1481 1479 1476 1474 1472 1470 1468 1466 1464 1462 1460 1459 1458 1457
1491 1494 1497 1500 1502 1505 1506 1508 1508 1508 1508 1507 1506 1505 1505 1504 1504 1502 1501 1501 1499 1497 1495 1493 1490 1487 1484 1481 1479 1476 1474 1471 1468 1466 1464 1461 1459 1457 1455 1453 1451 1450 1448
1487 1490 1493 1496 1499 1502 1504 1505 1506 1506 1506 1505 1503 1502 1501 1500 1500 1499 1496 1495 1494 1493 1491 1488 1485 1481 1479 1476 1473 1471 1468 1466 1463 1460 1457 1454 1452 1450 1448 1445 1443 1441 1439
1482 1486 1490 1493 1496 1499 1501 1502 1503 1504 1503 1502 1501 1500 1498 1497 1497 1496 1493 1489 1486 1485 1483 1481 1478 1476 1473 1471 1468 1465 1463 1460 1457 1453 1450 1448 1445 1443 1440 1437 1434 1432 1429
1477 1481 1486 1489 1493 1496 1498 1499 1500 1500 1500 1499 1498 1497 1495 1494 1493 1492 1489 1485 1481 1477 1475 1474 1474 1472 1470 1467 1463 1460 1457 1453 1450 1446 1443 1441 1438 1434 1431 1428 1425 1422 1420
1472 1477 1482 1486 1490 1492 1494 1496 1496 1497 1496 1495 1494 1493 1492 1491 1489 1488 1486 1482 1476 1471 1470 1468 1468 1466 1464 1461 1458 1454 1450 1446 1442 1439 1436 1432 1428 1425 1421 1418 1415 1413 1410
1469 1474 1479 1483 1487 1489 1491 1492 1492 1492 1492 1491 1490 1489 1487 1486 1485 1484 1482 1479 1476 1468 1462 1461 1461 1460 1458 1454 1451 1446 1442 1438 1435 1431 1427 1423 1419 1415 1412 1408 1405 1403 1400
1466 1471 1476 1481 1484 1486 1488 1489 1489 1489 1488 1487 1485 1484 1483 1482 1480 1479 1477 1474 1472 1467 1460 1455 1455 1453 1450 1446 1443 1439 1434 1430 1427 1423 1419 1415 1411 1407 1403 1399 1396 1392 1389
1464 1469 1474 1478 1481 1483 1484 1485 1485 1485 1484 1482 1481 1480 1478 1477 1475 1473 1470 1468 1465 1462 1455 1449 1449 1446 1443 1439 1435 1431 1427 1422 1418 1415 1411 1407 1403 1399 1395 1390 1386 1383 1379
1462 1468 1472 1476 1478 1480 1481 1482 1481 1480 1479 1478 1476 1475 1473 1471 1469 1467 1465 1462 1460 1457 1452 1444 1441 1439 1436 1432 1427 1423 1419 1415 1411 1406 1403 1399 1394 1390 1385 1381 1377 1373 1370
1461 1466 1470 1473 1476 1477 1478 1478 1478 1477 1475 1473 1472 1470 1468 1466 1464 1462 1459 1456 1454 1451 1447 1441 1435 1432 1428 1425 1420 1415 1411 1407 1403 1398 1394 1389 1384 1380 1376 1372 1368 1364 1360
1460 1464 1468 1471 1473 1474 1475 1474 1473 1472 1470 1469 1467 1465 1463 1461 1458 1456 1453 1451 1448 1444 1441 1436 1430 1425 1421 1418 1414 1408 1402 1398 1393 1389 1384 1380 1375 1370 1366 1361 1357 1353 1349
1459 1463 1466 1468 1470 1471 1471 1470 1469 1467 1466 1464 1462 1460 1457 1455 1453 1451 1448 1445 1443 1439 1434 1430 1424 1419 1414 1411 1407 1402 1396 1389 1383 1380 1374 1370 1365 1360 1355 1350 1346 1342 1339
1458 1461 1464 1466 1467 1467 1467 1466 1464 1463 1461 1459 1456 1454 1452 1449 1447 1445 1443 1440 1437 1434 1429 1424 1419 1414 1409 1405 1401 1396 1390 1383 1374 1371 1367 1360 1357 1350 1345 1341 1337 1333 1330
1457 1459 1462 1463 1463 1464 1463 1462 1460 1458 1456 1453 1450 1448 1445 1443 1442 1438 1436 1433 1430 1427 1425 1420 1413 1408 1404 1399 1395 1389 1384 1377 1370 1365 1362 1351 1347 1341 1337 1332 1329 1325 1320
1456 1458 1459 1460 1460 1460 1459 1457 1455 1453 1451 1448 1446 1443 1441 1438 1436 1433 1430 1426 1423 1420 1417 1412 1408 1403 1398 1393 1389 1384 1378 1371 1363 1358 1356 1347 1338 1332 1326 1322 1318 1314 1311
1454 1456 1457 1457 1457 1456 1455 1453 1451 1448 1445 1443 1441 1439 1436 1434 1431 1428 1425 1420 1415 1411 1409 1405 1401 1396 1392 1387 1383 1378 1372 1365 1356 1349 1348 1342 1333 1324 1315 1310 1307 1304 1301
1453 1454 1455 1455 1454 1453 1451 1449 1446 1443 1440 1438 1436 1433 1431 1428 1426 1423 1419 1414 1409 1404 1401 1396 1393 1389 1384 1380 1376 1372 1367 1361 1353 1343 1338 1335 1327 1321 1306 1297 1296 1294 1290